Location: Boiro
(42.6475°N, 8.8834°W)
Time: 08:11:55
(UTC+02:00)

NANOSAT C BR1 - Pass Details

Date: 26 August 2022
Orbit: 582 x 600 km, 98.0° (Epoch: 25 September)

Event Time Altitude Azimuth Distance (km) Brightness Sun altitude
Rises 04:52:29 0° 12° (NNE) 2,827 ? -28.6°
Reaches altitude 10° 04:54:40 10° 13° (NNE) 1,919 ? -28.3°
Enters shadow 04:57:28 42° 12° (NNE) 841 ? -28.0°
